Location: 22
(39.7117°N, 89.5929°W)
Time: 03:45:24
(UTC-05:00)

Vanguard 3 - Visible Passes

Search period start: 12 September 2024 00:00
Search period end: 22 September 2024 00:00
Orbit: 507 x 3226 km, 33.3° (Epoch: 11 September)

Date Brightness Start Highest point End Pass type
(mag) Time Alt. Az. Time Alt. Az. Time Alt. Az.
12 Sep 11.5 04:42:30 10° SSE 04:49:42 13° SE 04:57:05 10° ESE visible
13 Sep 11.2 05:28:27 10° S 05:42:03 26° SE 05:55:57 10° E visible
14 Sep 11.4 04:14:01 10° SSE 04:21:41 14° SE 04:29:47 10° ESE visible
15 Sep 11.1 05:00:30 10° S 05:13:48 27° SE 05:28:15 10° E visible
16 Sep 11.2 03:45:55 10° SSE 03:53:37 15° SE 04:02:03 10° ESE visible
16 Sep 10.9 05:50:27 10° SSW 06:06:21 41° SE 06:23:18 10° E visible
17 Sep 11.0 04:32:45 10° S 04:45:32 28° SE 05:00:15 10° E visible
18 Sep 11.1 03:18:06 10° SSE 03:25:33 15° SE 03:33:58 10° E visible
18 Sep 10.8 05:22:44 10° SSW 05:37:54 42° SE 05:55:19 10° E visible
19 Sep 10.8 04:06:02 12° S 04:17:15 28° SE 04:31:59 10° E visible
19 Sep 10.6 06:14:09 10° SW 06:30:53 56° SSE 06:49:20 10° E visible
20 Sep 10.9 02:51:40 11° SSE 02:57:30 15° SE 03:05:35 10° E visible
20 Sep 10.6 04:55:48 12° SSW 05:09:28 43° SE 05:27:05 10° E visible
21 Sep 10.5 03:41:22 19° S 03:49:01 28° SE 04:03:29 10° E visible
21 Sep 10.4 05:46:34 10° SW 06:02:19 57° SSE 06:21:13 10° E visible
